星链-3851 (STARLINK-3851 )

导读

STARLINK-3851是美国太空探索技术公司(SpaceX)星链星座的一员,于2022年4月29日发射入轨。星链是全球规模最大的低轨互联网卫星星座,该卫星部署在近地轨道,为全球用户提供低延迟、高速率的宽带互联网服务,助力实现偏远地区网络覆盖,支撑日常上网、流媒体、远程通信等多样场景,是星链全球组网建设中的重要组成部分。

基本信息
目录编号:
52344
目录名称:
STARLINK-3851
国际标识:
2022-045P
轨道中心:
EARTH
卫星名称:
星链-3851
卫星全名:
星链-3851 (STARLINK-3851 )
卫星状态:
在轨 (已飞行1590 天)
发射日期:
2022-04-29 UTC
国别 :
美国 (US)
星等 :
--
轨道信息
数据来源 国际轨道数据
星历时间: 2026-09-04T23:17:04+0800
19小时前
查看轨道信息
半长轴: 6840.872km
偏心率: 0.0001167
轨道倾角: 53.161°
近地点辐角 84.968°
升交点赤经 109.772°
平近点角 275.145°
近地点: 461.936km
远地点: 463.534km
周期: 93.848分钟
每日圈数: 15.343895
详细信息
固有亮度:
5
最大亮度:
2.5
卫星平台:
Starlink v1.5
覆盖范围:
全球
运营商:
太空探索技术公司
运营商所在国:
美国
制造商(研发单位):
太空探索技术公司
制造商所在国:
美国
使用方式:
暂无
卫星简介
星链(Starlink)计划是由太空探索技术公司(SpaceX)提出的一个巨型低轨卫星互联网星座项目,计划在2019年至2024年间在太空搭建由约1.2万颗卫星组成的“星链”网络,其中1584颗将部署在地球上空550千米处的近地轨道,并从2020年开始工作。该卫星仍在工作。
2D轨道图
3D轨道图
轨道高度分析图
轨道倾角分析图
轨道综合分析图
查看轨道综合分析图
交会数据列表
事件ID 空间交会对象 最接近时刻(TCA) 交会距离 交会风险概率(CRP) 交会风险指数(CRI) 操作
CDM_260907-070505-234406-920121
2026-09-07T
07:05:58+0000
0.235 km
中距离
5.368137E-4 高风险 0.9
CDM_260907-184905-234406-920121
2026-09-07T
18:49:24+0000
0.475 km
远距离
1.573651E-4 高风险 0.79
CDM_260901-014705-234406-587122
2026-09-01T
01:47:40+0000
0.563 km
远距离
9.81721E-5 中风险 0.75
CDM_260907-135705-234406-809221
2026-09-07T
13:57:34+0000
0.543 km
远距离
8.424082E-5 中风险 0.74
CDM_260907-011404-750205-234423
HAWK-2C (47502)
2026-09-07T
01:14:35+0000
1.062 km
极远距离
2.193229E-5 中风险 0.62
CDM_260907-162505-234406-819221
2026-09-07T
16:25:22+0000
0.971 km
远距离
1.284148E-5 中风险 0.57
CDM_260907-192505-234406-809221
2026-09-07T
19:25:50+0000
1.210 km
极远距离
6.363731E-6 低风险 0.51
CDM_260907-024804-750505-234421
HAWK-2A (47505)
2026-09-07T
02:48:52+0000
1.699 km
极远距离
4.491859E-6 低风险 0.48
CDM_260907-123005-234406-819221
2026-09-07T
12:30:52+0000
1.847 km
极远距离
1.651583E-6 低风险 0.39
CDM_260907-073505-231305-234421
2026-09-07T
07:35:00+0000
2.394 km
极远距离
1.528246E-6 低风险 0.39